Flight Track Log - Related Links

Times and Time Zones

All times are in EDT time to prevent confusion due to time zone crossing. See the AWI4084 flight status page for this flight to view local times or setup timezone preferences in your user account.


Time Position Orientation Groundspeed Altitude Reporting Facility
EDT Latitude Longitude Course Direction KTS MPH feet Rate Location/Type
Tue 03:44:48 PM 38.8833 -77.0667 346° North 184 212 2,300  Level Potomac TRACON
Tue 03:46:00 PM 39.0932 -77.1651 336° Northwest  Level FlightAware Approximate
Tue 03:46:38 PM 38.9719 -77.1694 318° Northwest 235 270 6,700  Level Washington Center
Tue 03:47:00 PM 39.1763 -77.2126 336° Northwest  Level FlightAware Approximate
Tue 03:47:36 PM 38.9997 -77.2556 293° West 247 284 9,500  Level Washington Center
Tue 03:48:00 PM 39.2623 -77.2494 337° Northwest  Level FlightAware Approximate
Tue 03:48:37 PM 39.0278 -77.3525 290° West 266 306 10,900  Level Washington Center
Tue 03:49:00 PM 39.3459 -77.2958 337° Northwest  Level FlightAware Approximate
Tue 03:49:37 PM 39.0572 -77.4575 290° West 299 344 12,600  Level Washington Center
Tue 03:50:00 PM 39.4319 -77.3328 346° North  Level FlightAware Approximate
Tue 03:50:37 PM 39.1400 -77.4969 340° North 291 335 14,000  Level Washington Center
Tue 03:51:38 PM 39.2425 -77.4864 North 291 335 15,700 1,462 Climbing Washington Center
Tue 03:52:36 PM 39.3425 -77.4781 North 329 379 16,900 1,253 Climbing Washington Center
Tue 03:54:16 PM 39.5272 -77.4656 North 385 443 19,000 1,163 Climbing New York Center
Tue 03:55:16 PM 39.6300 -77.4564 North 385 443 20,000 1,041 Climbing New York Center
Tue 03:56:17 PM 39.7383 -77.4558 360° North 385 443 21,100 942 Climbing New York Center
Tue 03:57:17 PM 39.8422 -77.4306 11° North 385 443 21,900 800 Climbing New York Center
Tue 03:58:17 PM 39.9456 -77.3728 23° Northeast 393 452 22,700 756 Climbing New York Center
Tue 03:59:16 PM 40.0508 -77.3147 23° Northeast 393 452 23,400 655 Climbing New York Center
Tue 04:00:16 PM 40.1494 -77.2642 21° North 398 458 24,000 595 Climbing New York Center
Tue 04:01:17 PM 40.2550 -77.2061 23° Northeast 405 466 24,600 500 Climbing New York Center
Tue 04:02:16 PM 40.3603 -77.1478 23° Northeast 405 466 25,000 202 Climbing New York Center
Tue 04:03:16 PM 40.4719 -77.0872 22° Northeast 411 473 25,000  Level New York Center
Tue 04:04:17 PM 40.5814 -77.0289 22° Northeast 416 479 25,000  Level New York Center
Tue 04:05:17 PM 40.6844 -76.9697 24° Northeast 411 473 25,000  Level New York Center
Tue 04:06:17 PM 40.7875 -76.9133 23° Northeast 401 461 25,000  Level New York Center
Tue 04:07:18 PM 40.8861 -76.8592 23° Northeast 396 456 25,000  Level New York Center
Tue 04:08:18 PM 40.9867 -76.8050 22° Northeast 391 450 25,000 -458 Level New York Center
Tue 04:09:16 PM 41.0875 -76.7506 22° Northeast 386 444 24,100 -1,017 Descending New York Center
Tue 04:10:16 PM 41.1883 -76.6906 24° Northeast 391 450 23,000 -545 Descending New York Center
Tue 04:11:17 PM 41.2889 -76.6386 21° North 391 450 23,000  Level New York Center
Tue 04:12:17 PM 41.3875 -76.5808 24° Northeast 384 442 23,000  Level New York Center
Tue 04:13:17 PM 41.4839 -76.5281 22° Northeast 384 442 23,000 -248 Level New York Center
Tue 04:14:18 PM 41.5889 -76.4678 23° Northeast 379 436 22,500 -756 Descending New York Center
Tue 04:15:16 PM 41.6831 -76.4119 24° Northeast 379 436 21,500 -1,068 Descending New York Center
Tue 04:16:16 PM 41.7817 -76.3564 23° Northeast 374 430 20,400 -1,041 Descending New York Center
Tue 04:17:17 PM 41.8800 -76.3006 23° Northeast 374 430 19,400 -1,289 Descending New York Center
Tue 04:18:17 PM 41.9719 -76.2469 23° Northeast 368 423 17,800 -1,884 Descending New York Center
Tue 04:19:18 PM 42.0619 -76.1928 24° Northeast 358 412 15,600 -2,331 Descending New York Center
Tue 04:20:18 PM 42.1472 -76.1467 22° Northeast 345 397 13,100 -1,815 Descending New York Center
Tue 04:21:17 PM 42.2333 -76.1342 North 324 373 12,000 -908 Descending New York Center
Tue 04:22:17 PM 42.3206 -76.1328 North 313 360 11,300 -397 Descending New York Center
Tue 04:23:33 PM 42.4239 -76.1306 North 280 322 11,100 -126 Descending Boston Center
Tue 04:24:40 PM 42.5114 -76.1303 360° North 294 338 11,000 -99 Descending Boston Center
Tue 04:25:34 PM 42.5886 -76.1236 North 303 349 10,900 -1,096 Descending Boston Center
Tue 04:26:35 PM 42.6647 -76.0969 14° North 281 323 8,900 -1,967 Descending Boston Center
Tue 04:27:36 PM 42.7381 -76.0786 10° North 269 310 6,900 -1,930 Descending Boston Center
Tue 04:28:30 PM 42.8056 -76.0628 10° North 259 298 5,200 -1,513 Descending Boston Center
Tue 04:29:31 PM 42.8767 -76.0472 North 255 293 4,000 -645 Descending Boston Center
Tue 04:30:31 PM 42.9461 -76.0286 11° North 232 267 3,900 -100 Descending Boston Center

Login

Don't have an account? Register now (free) for customized features, flight alerts, and more!